Weather History for KLWC - May, 2014

Change the Weather History Date:

Thursday, May 15, 2014

  Actual Average Record
Temperature  
Mean Temperature 51 °F 64 °F  
Max Temperature 64 °F 76 °F 90 °F (2001)
Min Temperature 37 °F 53 °F 37 °F (1997)
Degree Days  
Heating Degree Days 14 4  
Month to date heating degree days 73 73  
Since 1 July heating degree days 5594 5052  
Cooling Degree Days 0 3  
Month to date cooling degree days 54 27  
Year to date cooling degree days 64 50  
Growing Degree Days 3 (Base 50)    
Moisture  
Dew Point 33 °F    
Average Humidity 58    
Maximum Humidity 89    
Minimum Humidity 27    
Precipitation  
Precipitation 0.00 in 0.13 in 0.51 in (1999)
Month to date precipitation 1.09 2.34  
Year to date precipitation 6.68 11.04  
Sea Level Pressure  
Sea Level Pressure 30.14 in    
Wind  
Wind Speed 12 mph (NNW)    
Max Wind Speed 28 mph    
Max Gust Speed 36 mph    
Visibility 10 miles    
Events      
T = Trace of Precipitation, MM = Missing Value Source: NWS Daily Summary

Daily Weather History Graph

Daily Weather History Graph

Search for Another Location

Airport or City:

Trip Planner

Search our weather history database for the weather conditions in past years. The results will help you decide how hot, cold, wet, or windy it might be!

Date:

Astronomy

May. 15, 2014 Rise Set
Actual Time 6:08 AM CDT 8:26 PM CDT
Civil Twilight 5:37 AM CDT 8:57 PM CDT
Nautical Twilight 5:00 AM CDT 9:34 PM CDT
Astronomical Twilight 4:20 AM CDT 10:15 PM CDT
Moon 9:35 PM CDT (5/15) 6:55 AM CDT (5/15)
Length of Visible Light 15h 19m
Length of Day
14h 18m
Full, 99% of the Moon is Illuminated
May 15
Full
May 21
Last Quarter
May 28
New
Jun 5
First Quarter
Jun 12
Full

Hourly Weather History & Observations

Time (CDT) Temp. Windchill Dew Point Humidity Pressure Visibility Wind Dir Wind Speed Gust Speed Precip Events Conditions
12:52 AM 50.0 °F - 42.1 °F 74% 30.12 in 10.0 mi Calm Calm - 0.00 in   Clear
1:52 AM 46.0 °F - 41.0 °F 83% 30.11 in 10.0 mi Calm Calm - N/A   Partly Cloudy
2:52 AM 43.0 °F 41.3 °F 39.9 °F 89% 30.11 in 10.0 mi NW 3.5 mph - N/A   Clear
3:52 AM 43.0 °F 41.3 °F 39.0 °F 86% 30.10 in - NW 3.5 mph - N/A   Clear
4:52 AM 48.0 °F - 41.0 °F 77% 30.11 in - NNW 11.5 mph - N/A   Clear
5:52 AM 46.9 °F - 36.0 °F 66% 30.13 in - NNW 10.4 mph - N/A   Scattered Clouds
6:52 AM 46.0 °F 41.4 °F 35.1 °F 66% 30.17 in - NW 9.2 mph - N/A   Clear
7:52 AM 48.9 °F - 36.0 °F 61% 30.18 in - NNW 8.1 mph - N/A   Partly Cloudy
8:52 AM 53.1 °F - 32.0 °F 45% 30.19 in - NNW 12.7 mph - N/A   Clear
10:52 AM 57.0 °F - 28.0 °F 33% 30.19 in 10.0 mi North 15.0 mph 26.5 mph N/A   Clear
11:52 AM 60.1 °F - 28.0 °F 30% 30.18 in 10.0 mi NW 18.4 mph 25.3 mph N/A   Clear
12:52 PM 61.0 °F - 28.0 °F 29% 30.18 in 10.0 mi NW 25.3 mph 35.7 mph N/A   Partly Cloudy
2:52 PM 63.0 °F - 28.9 °F 28% 30.16 in 10.0 mi NW 18.4 mph 29.9 mph N/A   Scattered Clouds
3:52 PM 63.0 °F - 28.0 °F 27% 30.14 in 10.0 mi NW 21.9 mph 29.9 mph N/A   Mostly Cloudy
4:52 PM 63.0 °F - 28.9 °F 28% 30.13 in 10.0 mi NNW 19.6 mph 26.5 mph N/A   Mostly Cloudy
5:52 PM 62.1 °F - 28.0 °F 28% 30.13 in 10.0 mi NNW 16.1 mph - N/A   Clear
6:52 PM 60.1 °F - 27.0 °F 28% 30.12 in 10.0 mi NNW 18.4 mph 24.2 mph N/A   Partly Cloudy
7:52 PM 57.0 °F - 28.9 °F 34% 30.12 in 10.0 mi NNW 10.4 mph - N/A   Clear
8:52 PM 50.0 °F - 28.9 °F 44% 30.13 in 10.0 mi North 4.6 mph - N/A   Clear
9:52 PM 46.9 °F - 30.9 °F 54% 30.15 in 10.0 mi NNE 3.5 mph - N/A   Clear
10:52 PM 43.0 °F 40.3 °F 33.1 °F 68% 30.16 in 10.0 mi NW 4.6 mph - N/A   Clear
11:52 PM 41.0 °F 37.1 °F 33.1 °F 73% 30.16 in 10.0 mi NW 5.8 mph - N/A   Clear